Weather History for Pratt, KS

Change the Weather History Date:

Wednesday, August 21, 2013

  Actual Average (KP28) Record (KP28)
Temperature  
Mean Temperature 78 °F 80 °F  
Max Temperature 91 °F 92 °F 109 °F (1896)
Min Temperature 64 °F 67 °F 49 °F (1950)
Degree Days  
Heating Degree Days 0 0  
Month to date heating degree days 0  
Since 1 June heating degree days 3  
Since 1 July heating degree days 0  
Cooling Degree Days 12 15  
Month to date cooling degree days 341  
Year to date cooling degree days 1378  
Since 1 June cooling degree days 1222  
Growing Degree Days 28 (Base 50)    
Moisture  
Dew Point 59 °F    
Average Humidity 54    
Maximum Humidity 94    
Minimum Humidity 28    
Precipitation  
Precipitation 0.00 in 0.11 in 1.14 in (2006)
Month to date precipitation 2.04  
Year to date precipitation 19.27  
Snow  
Snow 0.00 in 0.00 in - ()
Month to date snowfall 0.0  
Since 1 June snowfall 0.0  
Since 1 July snowfall 0.0  
Snow Depth -    
Sea Level Pressure  
Sea Level Pressure 30.05 in    
Wind  
Wind Speed 13 mph (South)    
Max Wind Speed 22 mph    
Max Gust Speed 28 mph    
Visibility 10 miles    
Events      
T = Trace of Precipitation, MM = Missing Value Source: NWS Daily Summary

Daily Weather History Graph

Daily Weather History Graph

Search for Another Location

Airport:

Trip Planner

Search our weather history database for the weather conditions in past years. The results will help you decide how hot, cold, wet, or windy it might be!

Date:

Astronomy

Aug. 21, 2013 Rise Set
Actual Time 6:56 AM CDT 8:19 PM CDT
Civil Twilight 6:28 AM CDT 8:46 PM CDT
Nautical Twilight 5:55 AM CDT 9:19 PM CDT
Astronomical Twilight 5:20 AM CDT 9:54 PM CDT
Moon 8:31 PM CDT (8/21) 7:36 AM CDT (8/21)
Length of Visible Light 14h 18m
Length of Day
13h 23m
Waxing Gibbous, 99% of the Moon is Illuminated
Aug 21
Waxing Gibbous
Aug 28
Last Quarter
Sep 5
New
Sep 12
First Quarter
Sep 19
Full

Hourly Weather History & Observations

Time (CDT) Temp. Heat Index Dew Point Humidity Pressure Visibility Wind Dir Wind Speed Gust Speed Precip Events Conditions
12:15 AM 73.4 °F - 62.6 °F 69% 30.05 in 10.0 mi SSE 11.5 mph - N/A   Clear
12:35 AM 73.4 °F - 62.6 °F 69% 30.05 in 10.0 mi SSE 10.4 mph - N/A   Clear
12:55 AM 71.6 °F - 62.6 °F 73% 30.05 in 10.0 mi South 11.5 mph - N/A   Clear
1:15 AM 71.6 °F - 62.6 °F 73% 30.05 in 10.0 mi South 11.5 mph 18.4 mph N/A   Clear
1:35 AM 71.6 °F - 62.6 °F 73% 30.05 in 10.0 mi South 13.8 mph - N/A   Clear
1:55 AM 71.6 °F - 62.6 °F 73% 30.05 in 10.0 mi South 12.7 mph 19.6 mph N/A   Clear
2:15 AM 71.6 °F - 62.6 °F 73% 30.05 in 10.0 mi South 12.7 mph 18.4 mph N/A   Clear
2:35 AM 71.6 °F - 62.6 °F 73% 30.04 in 10.0 mi South 12.7 mph 17.3 mph N/A   Clear
2:55 AM 71.6 °F - 60.8 °F 69% 30.04 in 10.0 mi South 13.8 mph 18.4 mph N/A   Clear
3:15 AM 71.6 °F - 60.8 °F 69% 30.04 in 10.0 mi South 11.5 mph - N/A   Clear
3:35 AM 69.8 °F - 60.8 °F 73% 30.04 in 10.0 mi South 11.5 mph 16.1 mph N/A   Clear
3:55 AM 69.8 °F - 62.6 °F 78% 30.04 in 10.0 mi South 12.7 mph - N/A   Clear
4:15 AM 69.8 °F - 62.6 °F 78% 30.04 in 10.0 mi South 10.4 mph - N/A   Clear
4:35 AM 69.8 °F - 62.6 °F 78% 30.04 in 10.0 mi South 10.4 mph - N/A   Clear
4:55 AM 69.8 °F - 62.6 °F 78% 30.03 in 10.0 mi South 11.5 mph - N/A   Clear
5:15 AM 68.0 °F - 62.6 °F 83% 30.04 in 10.0 mi South 9.2 mph - N/A   Clear
5:35 AM 68.0 °F - 62.6 °F 83% 30.04 in 10.0 mi South 8.1 mph - N/A   Clear
5:55 AM 66.2 °F - 62.6 °F 88% 30.04 in 10.0 mi South 9.2 mph - N/A   Clear
6:15 AM 66.2 °F - 62.6 °F 88% 30.05 in 10.0 mi SSW 8.1 mph - N/A   Clear
6:35 AM 64.4 °F - 62.6 °F 94% 30.05 in 10.0 mi South 6.9 mph - N/A   Clear
6:55 AM 64.4 °F - 62.6 °F 94% 30.05 in 10.0 mi South 9.2 mph - N/A   Clear
7:15 AM 66.2 °F - 60.8 °F 83% 30.05 in 10.0 mi South 9.2 mph - N/A   Clear
7:35 AM 66.2 °F - 60.8 °F 83% 30.05 in 10.0 mi South 8.1 mph - N/A   Clear
7:55 AM 68.0 °F - 60.8 °F 78% 30.07 in 10.0 mi South 9.2 mph - N/A   Clear
8:15 AM 68.0 °F - 60.8 °F 78% 30.07 in 10.0 mi South 9.2 mph - N/A   Clear
8:35 AM 69.8 °F - 60.8 °F 73% 30.07 in 10.0 mi SSW 11.5 mph - N/A   Clear
8:55 AM 71.6 °F - 60.8 °F 69% 30.07 in 10.0 mi SSW 10.4 mph - N/A   Clear
9:15 AM 73.4 °F - 60.8 °F 65% 30.07 in 10.0 mi SSW 11.5 mph - N/A   Clear
9:35 AM 77.0 °F - 60.8 °F 57% 30.07 in 10.0 mi SSW 13.8 mph - N/A   Clear
9:55 AM 78.8 °F - 60.8 °F 54% 30.07 in 10.0 mi SSW 12.7 mph 21.9 mph N/A   Clear
10:15 AM 78.8 °F - 59.0 °F 51% 30.07 in 10.0 mi SSW 13.8 mph 19.6 mph N/A   Clear
10:35 AM 80.6 °F 81.1 °F 59.0 °F 48% 30.08 in 10.0 mi SW 16.1 mph - N/A   Clear
10:55 AM 80.6 °F 81.1 °F 59.0 °F 48% 30.07 in 10.0 mi SW 15.0 mph 21.9 mph N/A   Clear
11:15 AM 82.4 °F 82.5 °F 59.0 °F 45% 30.08 in 10.0 mi SSW 17.3 mph - N/A   Clear
11:35 AM 84.2 °F 83.8 °F 59.0 °F 42% 30.07 in 10.0 mi SSW 19.6 mph 23.0 mph N/A   Clear
11:55 AM 84.2 °F 83.8 °F 59.0 °F 42% 30.07 in 10.0 mi SSW 18.4 mph 27.6 mph N/A   Clear
12:15 PM 86.0 °F 85.4 °F 59.0 °F 40% 30.08 in 10.0 mi SSW 19.6 mph 25.3 mph N/A   Clear
12:35 PM 87.8 °F 87.1 °F 59.0 °F 38% 30.07 in 10.0 mi SSW 20.7 mph 26.5 mph N/A   Clear
12:55 PM 87.8 °F 87.1 °F 59.0 °F 38% 30.07 in 10.0 mi SSW 18.4 mph 23.0 mph N/A   Clear
1:15 PM 89.6 °F 88.9 °F 59.0 °F 36% 30.07 in 10.0 mi SSW 18.4 mph 23.0 mph N/A   Clear
1:35 PM 89.6 °F 88.9 °F 59.0 °F 36% 30.07 in 10.0 mi SSW 19.6 mph 25.3 mph N/A   Clear
1:55 PM 89.6 °F 88.9 °F 59.0 °F 36% 30.05 in 10.0 mi South 17.3 mph 25.3 mph N/A   Clear
2:15 PM 89.6 °F 88.1 °F 57.2 °F 33% 30.05 in 10.0 mi SSW 18.4 mph 24.2 mph N/A   Clear
2:35 PM 91.4 °F 89.9 °F 57.2 °F 31% 30.05 in 10.0 mi SSW 18.4 mph 23.0 mph N/A   Clear
2:55 PM 91.4 °F 89.9 °F 57.2 °F 31% 30.05 in 10.0 mi South 18.4 mph - N/A   Clear
3:15 PM 91.4 °F 89.4 °F 55.4 °F 29% 30.05 in 10.0 mi South 21.9 mph 26.5 mph N/A   Clear
3:35 PM 91.4 °F 89.4 °F 55.4 °F 29% 30.04 in 10.0 mi South 19.6 mph - N/A   Clear
3:55 PM 91.4 °F 89.4 °F 55.4 °F 29% 30.03 in 10.0 mi South 13.8 mph 25.3 mph N/A   Clear
4:15 PM 91.4 °F 89.4 °F 55.4 °F 29% 30.03 in 10.0 mi South 19.6 mph - N/A   Clear
4:35 PM 91.4 °F 89.4 °F 55.4 °F 29% 30.02 in 10.0 mi South 20.7 mph - N/A   Clear
4:55 PM 91.4 °F 89.4 °F 55.4 °F 29% 30.02 in 10.0 mi South 17.3 mph 23.0 mph N/A   Clear
5:15 PM 91.4 °F 89.4 °F 55.4 °F 29% 30.02 in 10.0 mi South 17.3 mph - N/A   Clear
5:35 PM 89.6 °F 87.3 °F 53.6 °F 29% 30.02 in 10.0 mi South 19.6 mph 25.3 mph N/A   Clear
5:55 PM 91.4 °F 89.1 °F 53.6 °F 28% 30.02 in 10.0 mi South 16.1 mph 20.7 mph N/A   Clear
6:15 PM 89.6 °F 87.3 °F 53.6 °F 29% 30.02 in 10.0 mi South 17.3 mph 21.9 mph N/A   Clear
6:35 PM 89.6 °F 87.3 °F 53.6 °F 29% 30.02 in 10.0 mi South 18.4 mph 21.9 mph N/A   Clear
6:55 PM 87.8 °F 85.7 °F 53.6 °F 31% 30.02 in 10.0 mi South 16.1 mph 23.0 mph N/A   Clear
7:15 PM 87.8 °F 85.7 °F 53.6 °F 31% 30.01 in 10.0 mi South 15.0 mph - N/A   Clear
7:35 PM 86.0 °F 84.2 °F 53.6 °F 33% 30.01 in 10.0 mi South 11.5 mph - N/A   Clear
7:55 PM 86.0 °F 84.2 °F 53.6 °F 33% 30.02 in 10.0 mi South 11.5 mph 17.3 mph N/A   Clear
8:15 PM 82.4 °F 81.4 °F 53.6 °F 37% 30.02 in 10.0 mi South 11.5 mph - N/A   Clear
8:35 PM 80.6 °F 80.3 °F 53.6 °F 39% 30.03 in 10.0 mi South 10.4 mph - N/A   Clear
8:55 PM 80.6 °F 80.3 °F 53.6 °F 39% 30.04 in 10.0 mi South 9.2 mph - N/A   Clear
9:15 PM 78.8 °F - 55.4 °F 44% 30.05 in 10.0 mi SSE 8.1 mph - N/A   Clear
9:35 PM 78.8 °F - 55.4 °F 44% 30.05 in 10.0 mi South 11.5 mph - N/A   Clear
9:55 PM 78.8 °F - 55.4 °F 44% 30.05 in 10.0 mi South 10.4 mph - N/A   Clear
10:15 PM 77.0 °F - 55.4 °F 47% 30.07 in 10.0 mi South 11.5 mph - N/A   Clear
10:35 PM 77.0 °F - 55.4 °F 47% 30.07 in 10.0 mi South 11.5 mph - N/A   Clear
10:55 PM 75.2 °F - 55.4 °F 50% 30.07 in 10.0 mi South 12.7 mph - N/A   Clear
11:15 PM 73.4 °F - 57.2 °F 57% 30.07 in 10.0 mi South 13.8 mph - N/A   Clear
11:35 PM 73.4 °F - 59.0 °F 61% 30.06 in 10.0 mi South 16.1 mph - N/A   Clear
11:55 PM 73.4 °F - 59.0 °F 61% 30.05 in 10.0 mi South 16.1 mph - N/A   Clear